Olivia, MN

1:56 AM CDT on July 21, 2017 (GMT -0500)
Olivia Regional

Weather History for KOVL - November, 2012

Change the Weather History Date:

Sunday, November 18, 2012

  Actual Average (KRWF) Record (KRWF)
Temperature  
Mean Temperature 49 °F -  
Max Temperature 59 °F 40 °F 67 °F (1999)
Min Temperature 39 °F 23 °F -5 °F (1986)
Degree Days  
Heating Degree Days 16    
Moisture  
Dew Point 34 °F    
Average Humidity 58    
Maximum Humidity 75    
Minimum Humidity 41    
Precipitation  
Precipitation 0.00 in - - ()
Sea Level Pressure  
Sea Level Pressure 30.03 in    
Wind  
Wind Speed 13 mph (SSE)    
Max Wind Speed 18 mph    
Max Gust Speed 29 mph    
Visibility 10 miles    
Events      
Averages and records for this station are not official NWS values.
T = Trace of Precipitation, MM = Missing Value Source: NWS Daily Summary

Daily Weather History Graph

Daily Weather History Graph

Search for Another Location

Airport or City:

Trip Planner

Search our weather history database for the weather conditions in past years. The results will help you decide how hot, cold, wet, or windy it might be!

Date:

Astronomy

Nov. 18, 2012 Rise Set
Actual Time 7:21 AM CST 4:48 PM CST
Civil Twilight 6:49 AM CST 5:20 PM CST
Nautical Twilight 6:14 AM CST 5:56 PM CST
Astronomical Twilight 5:39 AM CST 6:30 PM CST
Moon 11:46 AM CST (11/18) 10:12 PM CST (11/18)
Length of Visible Light 10h 30m
Length of Day
9h 26m
Waxing Crescent, 30% of the Moon is Illuminated
Nov 18
Waxing Crescent
Nov 20
First Quarter
Nov 28
Full
Dec 6
Last Quarter
Dec 13
New

Hourly Weather History & Observations

Time (CST) Temp. Windchill Dew Point Humidity Pressure Visibility Wind Dir Wind Speed Gust Speed Precip Events Conditions
12:10 AM 50.0 °F - 33.8 °F 54% 30.09 in 10.0 mi SSE 17.3 mph 25.3 mph N/A   Clear
12:31 AM 50.0 °F - 33.8 °F 54% 30.09 in 10.0 mi South 18.4 mph 28.8 mph N/A   Clear
12:51 AM 50.0 °F - 35.6 °F 58% 30.09 in 10.0 mi SSE 16.1 mph 23.0 mph N/A   Clear
1:11 AM 46.4 °F 39.8 °F 32.0 °F 57% 30.09 in 10.0 mi SSE 16.1 mph 24.2 mph N/A   Clear
1:31 AM 46.4 °F 40.1 °F 33.8 °F 62% 30.08 in 10.0 mi SSE 15.0 mph 20.7 mph N/A   Clear
1:51 AM 46.4 °F 40.7 °F 33.8 °F 62% 30.08 in 10.0 mi South 12.7 mph 19.6 mph N/A   Clear
2:11 AM 46.4 °F 40.7 °F 33.8 °F 62% 30.08 in 10.0 mi SSE 12.7 mph 19.6 mph N/A   Clear
2:31 AM 44.6 °F 38.8 °F 32.0 °F 61% 30.08 in 10.0 mi South 11.5 mph 17.3 mph N/A   Clear
2:51 AM 42.8 °F 35.8 °F 32.0 °F 66% 30.08 in 10.0 mi SSE 13.8 mph - N/A   Clear
3:11 AM 42.8 °F 36.6 °F 32.0 °F 66% 30.07 in 10.0 mi SSE 11.5 mph - N/A   Clear
3:31 AM 42.8 °F 36.6 °F 32.0 °F 66% 30.06 in 10.0 mi SSE 11.5 mph - N/A   Clear
3:51 AM 42.8 °F 37.0 °F 32.0 °F 66% 30.06 in 10.0 mi SSE 10.4 mph - N/A   Clear
4:11 AM 42.8 °F 36.6 °F 32.0 °F 66% 30.06 in 10.0 mi SSE 11.5 mph - N/A   Clear
4:31 AM 41.0 °F 34.3 °F 32.0 °F 70% 30.05 in 10.0 mi SSE 11.5 mph - N/A   Clear
4:51 AM 41.0 °F 33.9 °F 32.0 °F 70% 30.05 in 10.0 mi SSE 12.7 mph - N/A   Clear
5:11 AM 41.0 °F 34.7 °F 32.0 °F 70% 30.05 in 10.0 mi SSE 10.4 mph - N/A   Clear
5:31 AM 41.0 °F 35.2 °F 32.0 °F 70% 30.05 in 10.0 mi SSE 9.2 mph - N/A   Clear
5:51 AM 41.0 °F 34.7 °F 32.0 °F 70% 30.05 in 10.0 mi SSE 10.4 mph - N/A   Clear
6:11 AM 39.2 °F 33.0 °F 32.0 °F 75% 30.04 in 10.0 mi South 9.2 mph - N/A   Clear
6:31 AM 39.2 °F 33.0 °F 32.0 °F 75% 30.04 in 10.0 mi SSE 9.2 mph - N/A   Clear
6:51 AM 39.2 °F 33.6 °F 32.0 °F 75% 30.05 in 10.0 mi SSE 8.1 mph - N/A   Clear
7:11 AM 39.2 °F 33.6 °F 32.0 °F 75% 30.04 in 10.0 mi SSE 8.1 mph - N/A   Clear
7:31 AM 39.2 °F 34.2 °F 32.0 °F 75% 30.05 in 10.0 mi SSE 6.9 mph - N/A   Clear
7:51 AM 39.2 °F 34.2 °F 32.0 °F 75% 30.05 in 10.0 mi SSE 6.9 mph - N/A   Clear
8:11 AM 39.2 °F 33.6 °F 32.0 °F 75% 30.05 in 10.0 mi SSE 8.1 mph - N/A   Clear
8:31 AM 41.0 °F 34.7 °F 32.0 °F 70% 30.05 in 10.0 mi SSE 10.4 mph - N/A   Clear
8:51 AM 42.8 °F 37.0 °F 32.0 °F 66% 30.05 in 10.0 mi SSE 10.4 mph - N/A   Clear
9:11 AM 42.8 °F 37.0 °F 32.0 °F 66% 30.05 in 10.0 mi SSE 10.4 mph - N/A   Clear
9:31 AM 44.6 °F 39.7 °F 32.0 °F 61% 30.05 in 10.0 mi South 9.2 mph - N/A   Clear
9:51 AM 46.4 °F 41.5 °F 32.0 °F 57% 30.05 in 10.0 mi SSE 10.4 mph - N/A   Clear
10:11 AM 50.0 °F - 33.8 °F 54% 30.05 in 10.0 mi South 11.5 mph 16.1 mph N/A   Clear
10:31 AM 50.0 °F - 33.8 °F 54% 30.05 in 10.0 mi South 10.4 mph - N/A   Clear
10:51 AM 50.0 °F - 32.0 °F 50% 30.05 in 10.0 mi South 11.5 mph 16.1 mph N/A   Clear
11:11 AM 51.8 °F - 32.0 °F 47% 30.04 in 10.0 mi South 11.5 mph - N/A   Clear
11:31 AM 53.6 °F - 33.8 °F 47% 30.03 in 10.0 mi South 11.5 mph - N/A   Clear
11:51 AM 53.6 °F - 33.8 °F 47% 30.02 in 10.0 mi South 11.5 mph - N/A   Clear
12:11 PM 53.6 °F - 33.8 °F 47% 30.01 in 10.0 mi South 13.8 mph 18.4 mph N/A   Clear
12:31 PM 55.4 °F - 33.8 °F 44% 30.01 in 10.0 mi South 15.0 mph - N/A   Clear
12:50 PM 57.2 °F - 33.8 °F 41% 30.01 in 10.0 mi South 13.8 mph 19.6 mph N/A   Clear
1:11 PM 57.2 °F - 33.8 °F 41% 30.00 in 10.0 mi South 13.8 mph 20.7 mph N/A   Clear
1:31 PM 59.0 °F - 35.6 °F 42% 30.00 in 10.0 mi South 16.1 mph - N/A   Clear
1:51 PM 59.0 °F - 35.6 °F 42% 30.00 in 10.0 mi South 15.0 mph 19.6 mph N/A   Clear
2:11 PM 59.0 °F - 35.6 °F 42% 29.99 in 10.0 mi South 15.0 mph 20.7 mph N/A   Clear
2:31 PM 59.0 °F - 35.6 °F 42% 29.99 in 10.0 mi South 13.8 mph - N/A   Clear
2:51 PM 59.0 °F - 35.6 °F 42% 29.99 in 10.0 mi South 16.1 mph 19.6 mph N/A   Clear
3:10 PM 59.0 °F - 35.6 °F 42% 29.99 in 10.0 mi South 13.8 mph 20.7 mph N/A   Clear
3:31 PM 59.0 °F - 35.6 °F 42% 30.00 in 10.0 mi South 13.8 mph - N/A   Scattered Clouds
3:51 PM 57.2 °F - 35.6 °F 44% 30.00 in 10.0 mi SSE 13.8 mph - N/A   Clear
4:11 PM 53.6 °F - 35.6 °F 51% 30.00 in 10.0 mi South 10.4 mph - N/A   Clear
4:31 PM 53.6 °F - 35.6 °F 51% 30.01 in 10.0 mi SSE 10.4 mph - N/A   Clear
4:51 PM 51.8 °F - 35.6 °F 54% 30.01 in 10.0 mi SSE 8.1 mph - N/A   Clear
5:11 PM 50.0 °F - 35.6 °F 58% 30.01 in 10.0 mi SE 8.1 mph - N/A   Clear
5:31 PM 50.0 °F - 35.6 °F 58% 30.01 in 10.0 mi SE 9.2 mph - N/A   Clear
5:51 PM 50.0 °F - 35.6 °F 58% 30.01 in 10.0 mi SE 8.1 mph - N/A   Clear
6:11 PM 50.0 °F - 35.6 °F 58% 30.01 in 10.0 mi SE 8.1 mph - N/A   Clear
6:31 PM 51.8 °F - 35.6 °F 54% 30.01 in 10.0 mi SSE 9.2 mph - N/A   Clear
6:51 PM 51.8 °F - 35.6 °F 54% 30.01 in 10.0 mi SSE 11.5 mph - N/A   Clear
7:11 PM 51.8 °F - 35.6 °F 54% 30.01 in 10.0 mi SSE 11.5 mph - N/A   Clear
7:31 PM 51.8 °F - 33.8 °F 50% 30.01 in 10.0 mi SSE 10.4 mph 16.1 mph N/A   Clear
7:51 PM 50.0 °F - 33.8 °F 54% 30.01 in 10.0 mi SSE 11.5 mph 17.3 mph N/A   Clear
8:11 PM 50.0 °F - 33.8 °F 54% 30.01 in 10.0 mi SSE 13.8 mph - N/A   Clear
8:31 PM 50.0 °F - 33.8 °F 54% 30.02 in 10.0 mi South 12.7 mph - N/A   Clear
8:51 PM 50.0 °F - 33.8 °F 54% 30.02 in 10.0 mi SSE 13.8 mph 17.3 mph N/A   Clear
9:11 PM 50.0 °F - 33.8 °F 54% 30.02 in 10.0 mi SSE 12.7 mph 18.4 mph N/A   Clear
9:31 PM 50.0 °F - 33.8 °F 54% 30.02 in 10.0 mi SSE 12.7 mph - N/A   Clear
9:51 PM 50.0 °F - 35.6 °F 58% 30.02 in 10.0 mi SSE 12.7 mph - N/A   Clear
10:10 PM 50.0 °F - 35.6 °F 58% 30.02 in 10.0 mi SSE 10.4 mph - N/A   Clear
10:31 PM 50.0 °F - 35.6 °F 58% 30.02 in 10.0 mi SSE 11.5 mph - N/A   Clear
10:51 PM 50.0 °F - 35.6 °F 58% 30.01 in 10.0 mi SSE 12.7 mph - N/A   Clear
11:10 PM 46.4 °F 41.1 °F 33.8 °F 62% 30.01 in 10.0 mi SSE 11.5 mph - N/A   Clear
11:31 PM 46.4 °F 41.5 °F 33.8 °F 62% 30.00 in 10.0 mi SSE 10.4 mph - N/A   Clear
11:51 PM 44.6 °F 38.8 °F 33.8 °F 66% 30.01 in 10.0 mi SSE 11.5 mph - N/A   Clear